Hourly Data Report for June 29, 2021

WESTERN HEAD
NOVA SCOTIA
Current Station Operator: ECCC - MSC

43°59'24.070" N
64°39'51.008" W
10.10 m
8206240
71411
WWE

Download Data

Hourly Data (June 2021)
Hourly Data Report for June 29, 2021
TIME
LST
Temp Definition
°C
Dew Point Definition
°C
Rel Hum Definition
%
Precip. Amount Definition
mm

Wind Dir Definition
10's deg

Wind Spd Definition
km/h
Visibility Definition
km
Stn Press Definition
kPa
Hmdx Definition


Wind Chill Definition


Weather Definition


00:00 16.0 LegendMM LegendMM 0.0 25 11   101.70     LegendNANA
01:00 12.7 LegendMM LegendMM 0.0 24 13   101.67     LegendNANA
02:00 11.0 LegendMM LegendMM 0.0 22 9   101.65     LegendNANA
03:00 12.8 LegendMM LegendMM 0.0 21 8   101.63     LegendNANA
04:00 11.6 LegendMM LegendMM 0.0 24 11   101.63     LegendNANA
05:00 10.5 LegendMM LegendMM 0.0 21 5   101.66     LegendNANA
06:00 11.6 LegendMM LegendMM 0.0 24 8   101.66     LegendNANA
07:00 13.1 LegendMM LegendMM 0.0 23 9   101.67     LegendNANA
08:00 15.5 LegendMM LegendMM 0.0 22 8   101.67     LegendNANA
09:00 15.5 15.5 100 0.0 23 10   101.64     LegendNANA
10:00 17.3 17.3 100 0.0 22 9   101.62     LegendNANA
11:00 17.0 17.0 100 0.0 22 10   101.60     LegendNANA
12:00 17.0 17.0 100 0.0 21 9   101.56     LegendNANA
13:00 15.6 15.1 97 0.0 11 6   101.53     LegendNANA
14:00 18.8 14.9 78 0.0 6 8   101.48     LegendNANA
15:00 18.0 14.5 80 0.0 6 6   101.45     LegendNANA
16:00 17.7 13.7 78 0.0 4 6   101.40     LegendNANA
17:00 17.5 14.3 81 0.0 5 6   101.38     LegendNANA
18:00 17.6 14.8 84 0.0 8 3   101.37     LegendNANA
19:00 16.0 14.0 88 0.0 2 8   101.41     LegendNANA
20:00 14.3 14.3 100 0.0 2 6   101.44     LegendNANA
21:00 13.8 13.8 100 0.0 2 4   101.50     LegendNANA
22:00 14.5 LegendMM LegendMM 0.0 35 4   101.51     LegendNANA
23:00 16.4 LegendMM LegendMM 0.0 24 3   101.47     LegendNANA

Notes on Data Quality.

Legend

  • E = Estimated
  • M = Missing
  • NA = Not Available*
  • [empty] = Indicates an unobserved value
Date modified: